Temp
11 11 10 10 10 10 10 10 10 10 9 10 10 10 10 10 10 10 10 10 9 9 9 9 9 9 9 9 9 9 9 9 9 9 9 9 9 9 9 9 9 8 8
12 11 11 10 11 11 11 10 10 10 10 10 10 10 10 10 10 10 9 9 9 9 9 9 8 8 9 9 9 8 8 8 9 9 8 8 8 9 9 9 8 8 8
12 12 11 11 11 10 10 10 10 10 10 10 9 9 9 9 9 9 9 9 9 9 8 8 7 7 8 8 8 8 8 8 8 8 8 8 8 8 8 8 8 8 8
12 12 12 11 11 10 10 10 10 10 10 9 9 9 9 9 9 9 9 9 9 9 8 7 6 7 7 7 7 8 8 8 8 8 8 8 8 8 8 8 8 8 8
12 12 12 11 11 10 10 10 10 9 9 9 9 9 9 9 9 9 9 9 9 8 8 7 7 7 6 7 7 7 7 8 8 8 8 8 8 8 8 8 8 8 8
12 12 11 11 11 10 10 10 9 9 9 9 9 9 8 8 8 8 8 8 8 8 8 7 7 7 7 7 6 6 6 6 7 7 7 7 7 8 8 8 8 8 8
12 11 11 11 11 10 10 9 9 9 9 9 8 8 8 8 8 8 8 8 8 8 8 8 7 7 7 7 7 6 6 6 6 7 7 7 7 7 7 7 8 8 8
11 11 11 11 10 10 10 9 9 9 9 9 8 8 8 8 7 7 8 8 8 8 8 8 7 7 7 7 7 6 6 6 6 6 6 6 6 6 7 7 7 7 7
11 11 11 11 10 10 10 9 9 9 8 8 8 7 7 7 7 7 7 7 7 7 8 7 7 7 7 7 7 6 6 6 6 6 6 6 6 5 6 7 7 7 7
11 11 10 10 10 10 10 9 9 9 8 8 7 8 7 7 7 7 7 7 7 7 7 7 7 7 7 7 7 7 6 7 6 6 6 6 6 6 6 6 7 7 7
11 11 10 10 10 10 9 9 9 8 8 8 7 8 7 7 7 7 7 7 7 7 7 7 7 7 7 7 7 7 7 7 7 6 6 6 5 6 6 6 7 7 7
11 11 11 10 10 10 9 9 9 9 8 8 8 8 7 7 8 8 8 8 7 7 7 8 7 7 7 7 7 7 7 7 7 6 6 6 6 5 6 6 7 7 7
10 10 10 10 10 9 9 9 9 9 8 8 8 8 8 8 8 8 8 8 8 7 8 8 7 8 7 7 8 7 7 6 6 6 6 6 5 5 5 6 6 7 7
9 10 10 10 10 10 9 9 9 9 8 8 8 8 8 8 8 8 8 8 8 8 8 8 8 8 7 7 7 7 7 7 6 6 6 6 6 6 7 6 6 7 7
9 10 9 10 10 10 9 9 9 8 8 8 8 8 8 8 8 8 8 8 8 8 8 8 8 8 7 7 8 8 8 7 7 7 6 6 6 6 6 6 6 7 7
10 9 9 9 9 9 9 9 9 8 8 8 8 8 8 8 9 9 8 8 8 8 8 8 8 8 7 8 8 8 8 8 7 7 7 7 6 6 7 7 7 7 7
9 9 9 8 9 9 9 9 9 8 8 8 8 8 8 8 8 9 9 9 8 8 8 8 8 8 8 8 8 8 8 8 8 8 7 7 7 7 7 7 7 7 7
9 9 9 8 8 9 10 9 9 9 8 8 8 8 9 8 8 8 9 9 9 8 8 8 8 8 8 8 8 8 9 8 8 8 8 7 7 7 7 7 7 8 7
9 9 8 8 8 9 10 9 9 9 9 8 9 9 9 8 8 8 9 8 8 8 8 8 8 8 8 8 8 8 9 8 8 8 8 8 8 8 8 8 7 8 8
9 9 9 8 8 9 9 9 9 9 9 9 9 9 8 8 8 8 9 9 8 8 8 9 8 8 8 8 8 8 9 8 8 8 8 8 8 8 8 8 8 8 8
9 9 9 8 8 10 9 9 9 9 9 9 9 8 8 8 8 8 8 8 9 9 8 9 8 9 8 8 8 8 8 8 8 8 8 8 8 8 8 8 8 8 8
9 9 8 8 10 9 9 9 9 9 9 9 9 9 8 8 8 8 8 8 8 9 9 9 9 8 8 8 8 8 8 8 8 8 8 8 8 8 8 8 8 8 8
10 9 9 10 10 9 9 9 9 9 9 9 9 8 8 8 7 8 9 8 8 8 8 9 9 8 8 8 8 8 8 8 8 8 8 8 8 8 8 8 8 8 8
10 10 10 10 10 9 9 9 9 10 9 9 9 8 8 8 7 8 8 9 8 9 9 9 9 9 8 8 8 9 9 8 8 8 8 8 8 8 8 8 8 8 8
10 10 10 10 9 9 10 9 9 10 9 9 9 8 8 8 8 8 8 8 8 8 9 9 9 9 8 8 8 8 8 9 9 9 8 8 8 8 8 8 7 8 8
10 10 10 10 10 9 9 10 10 9 9 9 9 9 9 9 8 8 8 8 9 9 9 9 9 9 9 8 8 8 8 8 8 9 8 8 8 8 8 7 7 8 8
Height
3173 3177 3179 3181 3184 3187 3189 3192 3194 3195 3197 3198 3200 3202 3204 3205 3206 3207 3207 3207 3208 3209 3209 3208 3208 3208 3209 3209 3209 3209 3210 3211 3211 3211 3212 3213 3213 3214 3216 3217 3218 3219 3220
3176 3178 3181 3183 3186 3188 3191 3194 3196 3197 3198 3200 3202 3204 3206 3207 3207 3208 3208 3208 3209 3210 3210 3210 3211 3210 3210 3210 3209 3210 3211 3212 3213 3213 3213 3214 3215 3216 3217 3218 3219 3221 3222
3177 3180 3182 3185 3187 3190 3192 3194 3196 3198 3199 3202 3204 3205 3207 3208 3209 3209 3210 3210 3211 3211 3212 3210 3213 3210 3211 3211 3212 3212 3212 3213 3213 3214 3214 3216 3215 3216 3217 3219 3220 3222 3223
3178 3182 3184 3186 3188 3191 3194 3196 3197 3199 3201 3203 3205 3207 3208 3210 3210 3210 3211 3211 3212 3212 3212 3210 3207 3206 3207 3210 3212 3213 3214 3214 3214 3215 3216 3216 3216 3217 3218 3220 3222 3223 3224
3180 3183 3186 3188 3190 3193 3195 3197 3199 3200 3202 3204 3206 3208 3209 3211 3211 3212 3211 3212 3213 3213 3213 3210 3209 3209 3210 3208 3211 3213 3213 3214 3214 3216 3217 3217 3218 3218 3219 3221 3221 3223 3224
3182 3185 3187 3189 3192 3194 3196 3198 3200 3202 3204 3206 3207 3209 3211 3212 3212 3213 3212 3212 3213 3213 3213 3212 3211 3211 3210 3209 3211 3212 3213 3214 3215 3216 3217 3217 3218 3218 3220 3221 3221 3223 3225
3183 3186 3188 3191 3193 3195 3197 3199 3201 3203 3205 3207 3209 3210 3212 3212 3213 3214 3213 3213 3213 3212 3213 3213 3212 3211 3211 3211 3211 3210 3211 3213 3215 3216 3217 3217 3217 3218 3219 3221 3222 3224 3225
3185 3187 3189 3192 3194 3196 3199 3201 3203 3205 3206 3208 3209 3210 3211 3211 3211 3212 3213 3213 3212 3212 3213 3212 3212 3212 3212 3212 3211 3210 3210 3211 3213 3215 3216 3217 3217 3216 3218 3221 3223 3224 3226
3186 3189 3191 3193 3195 3197 3199 3202 3204 3205 3206 3207 3207 3207 3208 3209 3210 3210 3211 3212 3212 3213 3213 3212 3212 3212 3212 3212 3212 3211 3211 3210 3212 3214 3215 3216 3215 3218 3218 3220 3223 3225 3227
3186 3189 3191 3194 3197 3199 3201 3203 3204 3205 3206 3206 3204 3201 3201 3202 3204 3207 3209 3210 3210 3211 3212 3212 3212 3212 3212 3212 3211 3211 3210 3210 3211 3213 3214 3214 3214 3217 3218 3221 3223 3225 3227
3186 3189 3191 3194 3197 3199 3202 3203 3204 3205 3206 3206 3204 3203 3200 3200 3203 3205 3207 3207 3208 3209 3211 3210 3210 3211 3210 3210 3208 3208 3209 3208 3210 3212 3212 3214 3215 3215 3218 3222 3224 3225 3226
3187 3190 3192 3194 3197 3199 3202 3203 3204 3205 3206 3206 3205 3205 3203 3202 3203 3205 3206 3205 3205 3207 3208 3209 3208 3208 3208 3209 3210 3209 3209 3208 3209 3211 3211 3212 3214 3216 3219 3223 3224 3225 3227
3188 3190 3192 3194 3196 3198 3201 3203 3204 3204 3205 3206 3206 3205 3204 3202 3204 3205 3204 3204 3204 3206 3206 3207 3207 3208 3209 3209 3209 3209 3209 3209 3209 3210 3210 3211 3213 3215 3217 3220 3223 3226 3228
3185 3188 3190 3193 3195 3198 3200 3202 3203 3204 3204 3206 3205 3204 3204 3203 3204 3204 3203 3203 3203 3204 3205 3206 3206 3207 3208 3208 3209 3208 3208 3208 3209 3209 3209 3210 3211 3214 3213 3219 3224 3226 3228
3183 3185 3188 3190 3194 3197 3198 3200 3202 3202 3203 3204 3204 3204 3203 3203 3202 3202 3203 3202 3202 3203 3204 3205 3205 3207 3207 3208 3207 3207 3208 3207 3207 3208 3208 3208 3209 3212 3215 3218 3222 3225 3227
3181 3183 3186 3188 3191 3194 3196 3198 3200 3201 3201 3203 3203 3203 3203 3203 3202 3201 3201 3201 3201 3203 3203 3204 3205 3207 3207 3207 3207 3207 3207 3206 3207 3207 3206 3206 3208 3211 3213 3217 3220 3223 3227
3179 3181 3182 3185 3188 3192 3194 3196 3198 3200 3200 3201 3202 3201 3202 3201 3201 3201 3200 3200 3200 3202 3203 3203 3205 3206 3206 3206 3205 3206 3205 3206 3205 3206 3206 3205 3206 3209 3213 3216 3218 3222 3225
3177 3176 3177 3179 3184 3187 3191 3193 3196 3197 3198 3199 3200 3200 3199 3200 3200 3200 3200 3200 3199 3201 3202 3203 3204 3205 3206 3205 3206 3205 3205 3204 3205 3205 3205 3205 3205 3206 3209 3213 3216 3220 3224
3173 3169 3169 3169 3178 3184 3188 3189 3192 3195 3197 3198 3199 3199 3198 3197 3198 3198 3199 3199 3199 3201 3202 3203 3204 3205 3205 3205 3206 3206 3205 3204 3205 3205 3205 3206 3205 3205 3207 3211 3215 3218 3221
3168 3166 3160 3168 3178 3182 3186 3189 3191 3194 3195 3196 3196 3195 3195 3195 3196 3196 3197 3197 3197 3199 3201 3202 3203 3203 3204 3205 3205 3205 3205 3205 3204 3205 3205 3205 3205 3206 3207 3210 3213 3216 3219
3165 3165 3166 3169 3176 3181 3185 3188 3191 3192 3192 3193 3193 3192 3192 3192 3192 3193 3194 3195 3196 3198 3199 3200 3202 3202 3204 3204 3204 3204 3204 3204 3204 3205 3205 3205 3205 3206 3207 3209 3212 3214 3217
3163 3163 3165 3170 3176 3181 3184 3186 3187 3189 3191 3191 3191 3190 3189 3189 3190 3190 3191 3193 3194 3196 3198 3199 3200 3202 3203 3203 3204 3204 3204 3205 3204 3205 3205 3206 3206 3207 3208 3209 3210 3213 3215
3161 3163 3165 3171 3176 3179 3182 3183 3186 3188 3189 3189 3189 3188 3186 3186 3185 3187 3188 3190 3193 3194 3196 3197 3199 3200 3202 3203 3203 3205 3204 3205 3204 3204 3204 3205 3207 3207 3208 3209 3209 3211 3213
3161 3164 3167 3170 3173 3177 3180 3182 3184 3185 3187 3188 3187 3184 3185 3184 3184 3185 3185 3187 3190 3192 3193 3195 3197 3199 3200 3202 3202 3204 3204 3205 3205 3204 3204 3205 3206 3207 3207 3208 3208 3209 3211
3160 3164 3167 3169 3173 3176 3178 3180 3182 3184 3186 3187 3185 3184 3183 3183 3183 3184 3184 3185 3187 3189 3192 3194 3196 3197 3199 3200 3201 3202 3203 3203 3204 3203 3203 3204 3205 3206 3207 3208 3208 3209 3209
3161 3163 3166 3169 3172 3175 3177 3179 3182 3183 3185 3185 3184 3183 3184 3183 3183 3184 3184 3184 3184 3187 3190 3193 3194 3196 3197 3199 3200 3201 3202 3202 3202 3202 3201 3202 3203 3204 3205 3207 3207 3208 3208
Wind_Speed
19 19 21 22 21 20 19 19 19 18 18 17 15 15 14 13 11 9 9 9 7 7 6 6 6 6 6 6 5 6 5 6 7 7 7 7 8 9 9 9 9 8 8
13 19 21 21 20 19 18 17 17 17 17 16 15 15 14 12 10 8 8 7 5 4 4 4 3 4 5 7 7 7 7 8 8 8 8 8 8 8 7 9 9 8 8
15 18 19 19 19 18 17 15 14 14 14 14 13 12 11 10 9 7 5 4 3 2 2 2 5 2 5 5 6 8 8 8 8 9 9 9 9 8 8 8 8 8 8
15 15 16 17 18 17 16 15 14 13 12 12 11 11 9 8 6 6 4 3 1 2 2 7 8 6 8 10 9 8 11 9 9 10 8 7 8 8 8 8 8 8 9
16 14 15 16 16 16 14 13 12 12 12 11 10 9 7 6 4 3 2 2 1 3 4 12 9 9 10 6 11 11 13 10 9 7 8 9 8 8 7 8 8 9 10
15 14 14 15 15 14 13 12 12 11 9 9 8 7 5 3 3 2 1 0 1 2 3 6 7 7 7 8 4 7 8 9 7 8 10 11 9 9 8 9 9 8 9
15 15 13 13 13 14 13 12 11 9 7 7 7 6 7 6 4 6 4 2 2 2 3 4 4 4 5 4 4 1 9 12 11 13 12 10 10 11 11 10 10 9 9
13 13 13 13 13 13 13 11 9 8 8 7 8 7 8 8 10 10 8 5 5 5 3 3 4 4 2 3 2 1 5 12 14 13 14 11 13 19 12 11 11 10 10
15 12 12 12 12 13 12 11 8 8 8 8 11 12 11 11 11 10 9 7 8 6 6 5 5 4 3 2 1 1 2 9 13 13 13 11 13 16 14 12 11 11 11
16 13 11 10 11 10 10 9 8 8 8 8 12 12 11 15 13 12 11 8 9 9 8 7 4 5 4 3 2 2 4 5 10 11 12 6 8 20 14 12 11 10 10
17 14 12 11 9 9 9 8 8 6 6 6 7 12 11 6 10 11 10 11 12 11 9 9 7 5 5 6 4 1 5 6 7 11 9 7 14 16 12 10 9 9 9
14 13 12 12 11 9 7 7 7 5 6 6 8 10 9 4 3 5 7 9 11 11 9 9 7 6 6 2 4 2 3 5 7 8 10 11 17 16 14 11 10 9 10
11 11 11 11 12 10 7 7 6 7 7 6 6 5 6 4 1 3 5 7 9 8 8 7 8 7 5 4 2 1 2 2 4 8 9 13 19 20 18 14 11 10 10
15 10 11 15 13 11 10 8 8 8 7 7 6 5 5 3 3 3 3 6 6 6 4 5 5 5 5 4 4 4 3 5 4 5 10 11 14 24 20 20 14 12 11
7 8 9 14 14 13 11 10 8 8 8 8 6 4 3 4 7 6 5 5 7 5 3 5 6 5 3 3 1 6 5 5 9 9 5 11 15 18 18 17 19 16 13
18 14 14 13 14 15 14 12 11 10 9 7 7 5 6 6 7 4 4 5 6 5 4 7 5 6 4 4 2 3 4 4 6 8 9 4 13 12 19 17 27 20 17
12 17 19 16 16 18 15 14 13 13 11 10 8 6 6 7 6 4 3 2 7 5 7 9 9 6 5 2 2 5 5 5 4 4 4 3 10 13 16 18 25 24 20
14 17 25 23 18 18 17 15 16 15 12 10 11 8 8 8 8 7 5 5 3 7 8 8 8 5 2 1 2 3 2 1 1 4 4 1 7 16 16 18 20 25 23
17 26 27 36 25 17 20 19 17 16 13 11 11 12 11 10 11 10 7 5 5 6 8 8 8 4 1 0 1 3 1 2 0 2 3 2 5 10 15 18 19 22 25
24 27 30 22 26 20 16 17 16 13 10 12 13 13 14 13 11 13 9 6 5 12 8 8 9 5 2 2 2 2 2 3 2 2 2 7 2 8 12 15 17 19 25
20 19 12 25 23 24 17 14 13 13 15 14 12 13 14 15 15 15 13 11 9 10 11 10 7 7 4 3 4 2 1 1 1 2 3 4 4 5 9 13 17 16 22
13 12 17 32 27 18 17 15 15 15 11 10 9 10 12 15 16 14 16 14 13 12 13 11 7 7 5 5 3 4 1 1 4 2 1 3 4 3 4 8 12 17 18
10 14 20 27 16 16 19 19 14 12 11 10 10 12 12 8 15 16 16 15 11 11 14 13 10 9 6 4 4 3 2 2 2 5 4 3 2 2 1 4 6 11 16
16 13 22 26 21 19 18 15 14 14 12 9 9 11 6 7 3 8 15 17 15 12 12 15 12 11 8 7 7 5 5 3 3 7 7 6 7 6 3 1 4 5 8
22 15 18 23 23 19 16 15 16 13 11 7 7 7 7 5 4 4 8 15 15 14 16 14 13 12 10 10 9 7 3 5 5 4 9 9 8 8 5 6 5 4 7
18 18 18 18 18 16 15 14 13 11 8 6 3 5 4 5 5 6 6 8 12 14 16 14 13 12 11 9 9 9 9 6 7 4 3 11 11 8 7 7 7 6 6
Wind_Direction
147 148 150 153 154 154 149 143 141 137 132 132 131 125 122 123 120 115 109 107 106 112 120 117 111 128 120 120 122 125 124 122 120 128 129 128 127 133 142 144 143 145 144
151 148 150 153 153 151 146 143 141 137 133 134 132 127 130 125 117 111 107 104 102 105 112 107 108 125 142 141 142 136 134 134 131 128 126 125 125 129 143 144 149 153 150
156 152 150 151 151 150 147 145 140 134 136 133 129 129 126 121 121 112 110 106 101 97 114 200 292 203 167 153 156 144 138 134 136 133 132 132 136 140 146 146 151 157 159
157 156 151 151 152 154 152 149 145 144 141 139 137 135 133 130 127 121 121 103 83 31 38 297 302 222 199 167 169 168 148 144 134 131 133 133 136 144 150 149 158 163 167
155 159 156 156 157 157 154 153 152 154 153 150 150 147 141 139 145 148 159 130 24 20 35 338 45 51 65 94 171 175 172 172 162 152 136 129 137 144 155 157 162 167 161
157 163 161 162 161 160 162 164 164 165 164 159 157 158 153 169 170 218 212 239 2 352 19 9 12 38 48 59 118 208 217 181 189 174 165 146 152 155 161 165 166 170 168
162 166 165 167 168 170 174 175 174 174 177 180 183 185 192 213 211 246 257 265 290 304 353 1 3 23 32 49 77 133 203 193 191 182 174 172 181 169 162 168 167 173 173
167 171 168 173 176 181 188 186 185 191 195 208 203 207 211 206 212 228 243 247 265 284 313 344 331 345 51 34 32 344 204 206 204 209 215 214 212 190 169 165 169 172 176
167 181 176 179 184 190 194 197 201 214 210 216 234 217 216 211 218 229 239 248 251 259 278 292 329 334 290 14 24 328 178 222 208 220 226 243 251 197 168 160 166 171 174
172 178 182 185 194 196 197 201 204 217 231 234 252 288 259 226 217 243 235 254 246 245 255 265 275 299 279 302 306 238 192 192 209 207 212 225 172 158 155 157 163 165 166
176 179 185 186 197 201 200 199 206 213 233 254 292 321 326 286 247 256 251 264 248 239 250 261 262 274 270 297 13 318 182 162 178 200 198 181 166 150 148 157 160 159 152
182 184 190 187 195 203 201 205 217 221 234 256 298 337 347 6 221 233 257 258 239 234 245 253 252 251 261 341 17 352 1 150 173 194 201 194 178 166 158 169 166 157 150
180 194 209 205 203 196 200 217 223 233 249 266 284 325 346 30 177 219 257 232 226 229 241 240 251 253 250 290 28 323 16 172 202 207 215 211 197 176 185 178 174 169 160
186 200 206 208 216 206 201 223 229 243 255 280 290 299 327 31 13 281 246 220 217 212 251 231 212 223 237 235 279 311 303 277 221 223 221 219 212 194 193 188 186 182 172
221 196 197 200 212 216 210 223 239 251 260 271 284 289 315 342 347 307 265 221 225 237 243 225 196 229 234 297 279 291 265 285 229 229 254 225 218 215 204 206 199 192 184
228 216 208 206 207 221 215 218 234 248 245 267 275 284 305 317 348 355 270 243 241 242 222 178 179 213 257 286 321 311 313 311 220 243 246 256 229 191 199 207 203 198 197
214 216 215 213 217 218 215 218 229 236 247 256 267 274 296 293 315 334 316 299 245 228 186 182 192 212 221 243 297 292 285 305 270 250 262 250 192 200 200 207 203 204 200
267 266 219 205 214 208 211 209 227 229 236 253 264 273 286 289 289 293 291 299 295 219 188 181 193 213 228 308 326 282 276 132 281 243 202 204 187 198 208 197 197 203 206
259 260 241 211 195 198 210 208 219 228 234 241 257 264 263 273 272 263 267 260 265 202 188 193 177 166 270 216 284 262 344 18 92 167 196 224 156 181 193 194 200 206 212
253 258 250 227 190 190 209 215 217 224 232 246 251 254 259 256 254 250 247 251 287 210 206 198 193 167 237 270 240 242 280 32 214 243 189 181 155 177 183 192 201 207 212
250 250 246 180 190 193 206 213 221 224 229 240 251 262 268 255 249 244 236 260 250 207 207 200 208 220 236 247 275 251 177 310 297 270 157 152 137 168 193 206 213 215 213
232 234 206 177 184 195 205 209 212 217 223 232 244 263 275 256 246 238 239 266 217 208 207 206 198 192 209 246 266 137 151 14 279 253 178 183 152 134 185 200 209 211 215
183 150 162 174 190 199 200 206 211 203 205 222 250 265 288 273 248 245 244 221 213 213 216 217 198 193 208 259 196 207 178 270 279 251 247 266 260 208 147 193 207 215 218
165 175 178 173 189 199 203 197 198 201 213 231 255 277 335 323 250 236 224 213 220 217 207 209 210 205 208 221 226 245 260 235 270 253 250 257 247 225 217 210 201 208 223
186 180 171 184 195 197 197 200 205 206 219 244 270 288 304 308 273 261 217 218 217 216 210 209 215 216 209 222 236 229 262 236 261 256 231 226 235 230 222 230 208 204 217
175 181 181 182 186 191 195 196 204 220 220 231 251 295 307 299 288 260 239 228 213 206 208 212 217 220 218 224 227 222 237 240 261 276 221 217 221 223 228 241 237 230 229